Regional Weather Roundup
Issued by NWS

Home | Current Version | Previous Version | Text Only | Print | Product List | Glossary On
Versions: 1 2 3 4 5 6 7 8 9 10 11 12 13 14 15 16 17 18 19 20 21 22 23 24 25 26 27 28 29 30 31 32 33 34 35 36 37 38 39 40 41 42 43 44 45 46 47 48 49 50
336
ASUS43 KDTX 270110
RWRMI
MICHIGAN HOURLY REGIONAL WEATHER ROUNDUP
NATIONAL WEATHER SERVICE DETROIT/PONTIAC MI
900 PM EDT THU MAY 26 2016

NOTE: "FAIR" INDICATES FEW OR NO CLOUDS BELOW 12,000 FEET WITH NO
SIGNIFICANT WEATHER AND/OR OBSTRUCTION TO VISIBILITY.

MIZ047>049-052>055-059>063-066>070-074>076-081>083-270200-
SOUTHEAST LOWER MICHIGAN

CITY           SKY/WX    TMP DP  RH WIND       PRES   REMARKS
ADRIAN         CLOUDY    78  63  59 SW9       29.89S
ALMA           MOCLDY    74  68  83 W12       29.87R
ANN ARBOR      PTCLDY    77  64  64 S5        29.88S
BAD AXE        PTCLDY    76  63  63 S5        29.85F
CARO           PTCLDY    76  64  65 S3        29.85R
DETROIT CITY   PTCLDY    80  62  54 S8        29.88S
DETROIT        MOCLDY    79  65  62 S6        29.88S
FLINT          MOCLDY    79  67  66 SE5       29.86S
GROSSE ILE     PTCLDY    72  66  83 S3        29.87S
HILLSDALE      CLEAR     77  56  47 SW5       29.91R
HOWELL         PTCLDY    79  63  58 S7        29.87S

CITY           SKY/WX    TMP DP  RH WIND       PRES   REMARKS
JACKSON        CLEAR     78  59  51 S7        29.88R
LAMBERTVILLE   PTCLDY    81  64  57 SW6       29.89F
LANSING        CLEAR     78  61  55 SW8       29.87R
LAPEER         FAIR      78  61  57 S5        29.87S
MASON          CLEAR     79  60  51 CALM      29.88R
MONROE         CLOUDY    79  67  66 S7        29.88R
MT. CLEMENS    MOCLDY    74  64  71 S10       29.87S
PONTIAC        MOCLDY    80  64  58 S5        29.87F
PORT HOPE        N/A     62  60  93 SE3       29.83F
PORT HURON     MOCLDY    77  64  65 S7        29.88F
TRI CITIES     CLOUDY    77  66  68 W6        29.85R
MIDLAND        FAIR      78  64  61 W5        29.84R
TROY           PTCLDY    83  62  49 S6        29.89S
SAGINAW HB     PTCLDY    72  68  88 CALM      29.85R
$$
MIZ043>046-050>051-056>058-064>065-071>073-077>080-270200-
SOUTHWEST LOWER MICHIGAN

CITY           SKY/WX    TMP DP  RH WIND       PRES   REMARKS
BATTLE CREEK   CLEAR     75  59  57 SW9       29.90R
BENTON HARBOR  CLEAR     75  61  61 CALM      29.89R
BIG RAPIDS     CLEAR     73  63  69 SW5       29.88R
COLDWATER      CLEAR     77  56  49 SW8       29.91R
FREMONT        FAIR      74  63  68 SW3       29.87R
HOLLAND        CLEAR     74  62  66 SW7       29.89R
GRAND RAPIDS   PTCLDY    78  63  59 W9        29.88R
IONIA          FAIR      77  63  61 W5        29.87R
KALAMAZOO      CLEAR     77  59  53 SW10      29.90R
LUDINGTON      CLEAR     69  61  76 W6        29.87R
MARSHALL       CLEAR     78  57  49 SW6       29.89R
MOUNT PLEASANT PTCLDY    76  63  62 W5        29.86R
MUSKEGON       PTCLDY    72  62  71 SW7       29.88R
SOUTH HAVEN    CLEAR     74  62  66 W3        29.89R
$$
MIZ016>042-270200-
NORTHERN LOWER MICHIGAN

CITY           SKY/WX    TMP DP  RH WIND       PRES   REMARKS
ALPENA         CLEAR     69  64  84 SE3       29.82S
BEAVER ISLAND  CLOUDY    53  53  99 W5        29.83R FOG
BELLAIRE       CLEAR     72  61  67 CALM      29.83R
CADILLAC       CLEAR     71  60  68 SW5       29.88R
CHARLEVOIX     CLEAR     60  59  96 SW7       29.87S FOG
FRANKFORT      CLEAR     66  61  85 NW7       29.87R
GAYLORD        CLEAR     72  60  66 W9        29.86R
GRAYLING       CLEAR     76  59  55 W7        29.86R
HARBOR SPRINGS FOG       56  55  98 SW6       29.85R VSB 1
HOUGHTON LAKE  CLEAR     75  59  57 SW9       29.87R
MANISTEE       CLEAR     73  61  64 SW8       29.87R
OSCODA         CLEAR     71  65  82 S7        29.83R
PELLSTON       CLEAR     64  58  80 CALM      29.83R
ROGERS CITY    MOCLDY    63  60  91 S3        29.84R
TRAVERSE CITY  MOCLDY    75  61  61 W9        29.83R
$$
MIZ007>008-015-270200-
EASTERN UPPER MICHIGAN

CITY           SKY/WX    TMP DP  RH WIND       PRES   REMARKS
KINROSS          N/A     63  63 100 S5        29.78F
MACKINAC ISLAN CLOUDY    60  60  99 SW3       29.81S
NEWBERRY       CLOUDY    59  58  97 W3        29.81R
S. S. MARIE    CLOUDY    66  63  90 CALM      29.77F
MUNISING         N/A     58  56  93 S3        29.83R
$$
MIZ004>006-011>014-085-270200-
CENTRAL UPPER MICHIGAN

CITY           SKY/WX    TMP DP  RH WIND       PRES   REMARKS
MANISTIQUE     CLOUDY    56  55  97 CALM      29.82R
ESCANABA       CLEAR     64  59  82 S3        29.82R
MENOMINEE      CLEAR     63  59  87 E5        29.85R
SAWYER-GWINN   CLEAR     66  59  77 SW6       29.83R
$$
MIZ001>003-009>011-084-270200-
WESTERN UPPER MICHIGAN

CITY           SKY/WX    TMP DP  RH WIND       PRES   REMARKS
IRON MOUNTAIN  PTCLDY    71  61  70 S3        29.82R
HOUGHTON       CLEAR     63  57  81 W6        29.79R
COPPER HARBOR    N/A     51  51 100 CALM      29.77F
IRONWOOD       CLEAR     66  63  88 CALM      29.80R
$$

ABBREVIATIONS USED IN REMARKS
   TC - TEMPERATURE IN CELSIUS
  WCI - WIND CHILL INDEX
   HX - HEAT INDEX
  VSB - VISIBILITY





USA.gov is the U.S. government's official web portal to all federal, state and local government web resources and services.